ES8TJM-10 Weather Reports


time (UTC)temp
C
wind
direction
speed
KPH
gust
KPH
rain 1hr
cm
rain 24hr
cm
rain mn
cm
humidity
%
barometer
mb
20260507103603 13 32 22.5 27.4 0.00 0.00 0.00 23 1014.6
20260507102703 13 8 12.9 19.3 0.00 0.00 0.00 23 1014.4
20260507102017 13 38 16.1 24.1 0.00 0.00 0.00 24 1014.4
20260507101118 12 43 14.5 25.7 0.00 0.00 0.00 22 1014.5
20260507100004 12 40 19.3 29.0 0.00 0.00 0.00 24 1014.4
20260507095404 12 29 16.1 24.1 0.00 0.00 0.00 24 1014.2
20260507094503 12 35 22.5 32.2 0.00 0.00 0.00 22 1014.2
20260507093604 12 43 19.3 32.2 0.00 0.00 0.00 25 1014.1
20260507092919 12 28 19.3 27.4 0.00 0.00 0.00 24 1014.3
20260507091804 12 50 19.3 27.4 0.00 0.00 0.00 25 1014.1
20260507090904 12 14 17.7 22.5 0.00 0.00 0.00 25 1014.1
20260507090217 12 36 17.7 22.5 0.00 0.00 0.00 25 1014.2
20260507085403 12 60 16.1 24.1 0.00 0.00 0.00 26 1014.1
20260507084503 11 29 16.1 19.3 0.00 0.00 0.00 27 1014.2
20260507083603 11 40 17.7 20.9 0.00 0.00 0.00 26 1014.0
20260507082703 11 48 16.1 25.7 0.00 0.00 0.00 27 1014.0
20260507081803 11 55 14.5 17.7 0.00 0.00 0.00 26 1014.2
20260507080903 11 46 12.9 19.3 0.00 0.00 0.00 26 1014.3
20260507080004 11 59 11.3 19.3 0.00 0.00 0.00 27 1014.2
20260507075403 11 73 12.9 19.3 0.00 0.00 0.00 28 1014.2
20260507074718 11 63 14.5 17.7 0.00 0.00 0.00 28 1014.3
20260507072704 11 60 8.0 12.9 0.00 0.00 0.00 31 1014.4
20260507071805 10 53 9.7 12.9 0.00 0.00 0.00 33 1014.5
20260507071118 10 51 11.3 12.9 0.00 0.00 0.00 34 1014.5
20260507070008 10 48 9.7 16.1 0.00 0.00 0.00 34 1014.5
20260507065403 10 51 8.0 12.9 0.00 0.00 0.00 37 1014.5
20260507064504 10 60 9.7 12.9 0.00 0.00 0.00 37 1014.5
20260507063603 9 39 11.3 12.9 0.00 0.00 0.00 38 1014.6
20260507062703 10 77 9.7 14.5 0.00 0.00 0.00 36 1014.5
20260507061803 10 96 9.7 11.3 0.00 0.00 0.00 37 1014.5
20260507060904 10 94 6.4 8.0 0.00 0.00 0.00 38 1014.6
20260507060003 10 81 8.0 9.7 0.00 0.00 0.00 38 1014.5
20260507055404 9 83 8.0 11.3 0.00 0.00 0.00 40 1014.5
20260507054503 8 83 8.0 8.0 0.00 0.00 0.00 42 1014.3
20260507053817 8 72 8.0 9.7 0.00 0.00 0.00 43 1014.4
20260507052704 7 78 8.0 11.3 0.00 0.00 0.00 45 1014.3
20260507051804 7 64 11.3 12.9 0.00 0.00 0.00 45 1014.4
20260507050903 7 50 11.3 12.9 0.00 0.00 0.00 45 1014.3
20260507050004 7 60 9.7 12.9 0.00 0.00 0.00 46 1014.3
20260507045403 7 54 11.3 14.5 0.00 0.00 0.00 46 1014.3
20260507044717 6 49 12.9 14.5 0.00 0.00 0.00 47 1014.3
20260507043603 6 46 11.3 14.5 0.00 0.00 0.00 50 1014.3
20260507042704 5 45 12.9 14.5 0.00 0.00 0.00 51 1014.1
20260507041803 5 45 12.9 16.1 0.00 0.00 0.00 53 1014.1
20260507040903 5 45 12.9 14.5 0.00 0.00 0.00 53 1014.0
20260507040005 5 48 14.5 17.7 0.00 0.00 0.00 54 1014.1
20260507035403 5 45 14.5 17.7 0.00 0.00 0.00 53 1014.1
20260507034717 5 45 14.5 16.1 0.00 0.00 0.00 54 1014.0
20260507033603 5 45 12.9 16.1 0.00 0.00 0.00 56 1014.0
20260507032703 4 42 11.3 12.9 0.00 0.00 0.00 57 1013.9
20260507031803 4 49 11.3 14.5 0.00 0.00 0.00 58 1013.9
20260507030903 4 45 9.7 11.3 0.00 0.00 0.00 59 1013.8
20260507030003 4 48 8.0 9.7 0.00 0.00 0.00 58 1013.9
20260507025403 4 46 8.0 9.7 0.00 0.00 0.00 58 1013.9
20260507024503 4 35 6.4 8.0 0.00 0.00 0.00 58 1013.9
20260507023603 4 45 9.7 9.7 0.00 0.00 0.00 58 1013.8
20260507022703 4 48 9.7 11.3 0.00 0.00 0.00 58 1014.0
20260507021803 4 45 9.7 11.3 0.00 0.00 0.00 57 1013.9
20260507020903 4 45 8.0 9.7 0.00 0.00 0.00 57 1014.0
20260507020003 4 45 8.0 9.7 0.00 0.00 0.00 57 1014.0
20260507015619 4 45 8.0 9.7 0.00 0.00 0.00 57 1013.9
20260507014503 4 45 9.7 11.3 0.00 0.00 0.00 56 1013.9
20260507013603 4 45 11.3 12.9 0.00 0.00 0.00 56 1013.8
20260507012703 4 45 12.9 14.5 0.00 0.00 0.00 55 1013.7
20260507011803 5 45 12.9 14.5 0.00 0.00 0.00 55 1014.1
20260507010903 5 45 12.9 12.9 0.00 0.00 0.00 54 1014.0
20260507010004 5 42 11.3 12.9 0.00 0.00 0.00 54 1013.9
20260507005618 5 45 9.7 12.9 0.00 0.00 0.00 54 1013.9
20260507004504 5 45 12.9 16.1 0.00 0.00 0.00 53 1013.9
20260507003603 5 48 14.5 16.1 0.00 0.00 0.00 53 1013.7
20260507002918 5 45 12.9 16.1 0.00 0.00 0.00 53 1013.8
20260507001803 5 45 12.9 16.1 0.00 0.00 0.00 52 1013.8
20260507000903 5 45 12.9 12.9 0.00 0.00 0.00 52 1013.8
20260507000219 5 45 12.9 17.7 0.00 0.00 0.00 52 1013.7
20260506235403 5 42 14.5 17.7 0.00 0.00 0.00 52 1013.7
20260506234504 5 45 16.1 17.7 0.00 0.00 0.00 52 1013.7
20260506233603 5 57 16.1 19.3 0.00 0.00 0.00 52 1013.6
20260506232703 5 52 17.7 19.3 0.00 0.00 0.00 51 1013.5
20260506232017 5 43 17.7 20.9 0.00 0.00 0.00 51 1013.5
20260506230903 5 45 19.3 24.1 0.00 0.00 0.00 51 1013.5
20260506230004 5 45 16.1 20.9 0.00 0.00 0.00 51 1013.6
20260506225403 5 49 16.1 20.9 0.00 0.00 0.00 51 1013.6
20260506224717 5 46 16.1 20.9 0.00 0.00 0.00 50 1013.6
20260506223603 6 48 17.7 22.5 0.00 0.00 0.00 49 1013.5
20260506222703 6 45 17.7 20.9 0.00 0.00 0.00 47 1013.4
20260506221803 6 45 19.3 24.1 0.00 0.00 0.00 47 1013.4
20260506220903 6 45 19.3 19.3 0.00 0.00 0.00 46 1013.3
20260506220004 6 45 19.3 24.1 0.00 0.00 0.00 46 1013.4
20260506215403 6 45 17.7 20.9 0.00 0.00 0.00 46 1013.3
20260506214719 6 45 17.7 19.3 0.00 0.00 0.00 46 1013.3
20260506213603 6 45 20.9 24.1 0.00 0.00 0.00 46 1013.3
20260506212703 6 45 19.3 20.9 0.00 0.00 0.00 45 1013.3
20260506211803 6 41 19.3 20.9 0.00 0.00 0.00 44 1013.3
20260506210903 6 49 17.7 24.1 0.00 0.00 0.00 44 1013.3
20260506210004 6 43 17.7 19.3 0.00 0.00 0.00 44 1013.3
20260506205617 6 43 17.7 19.3 0.00 0.00 0.00 44 1013.3
20260506204718 6 39 17.7 20.9 0.00 0.00 0.00 43 1013.3
20260506203603 6 42 17.7 22.5 0.00 0.00 0.00 44 1013.5
20260506202703 6 35 17.7 20.9 0.00 0.00 0.00 43 1013.4
20260506201803 6 34 22.5 25.7 0.00 0.00 0.00 43 1013.4
20260506200903 6 44 20.9 25.7 0.00 0.00 0.00 43 1013.4
20260506200217 7 44 20.9 25.7 0.00 0.00 0.00 42 1013.3
20260506195403 7 40 20.9 24.1 0.00 0.00 0.00 42 1013.3
20260506194503 7 42 20.9 24.1 0.00 0.00 0.00 41 1013.4
20260506193603 7 43 20.9 25.7 0.00 0.00 0.00 41 1013.3
20260506192703 7 41 22.5 25.7 0.00 0.00 0.00 41 1013.3
20260506191803 7 33 20.9 25.7 0.00 0.00 0.00 40 1013.2
20260506190903 7 35 19.3 24.1 0.00 0.00 0.00 39 1013.4
20260506190004 7 34 17.7 24.1 0.00 0.00 0.00 38 1013.5
20260506185403 7 33 17.7 20.9 0.00 0.00 0.00 37 1013.5
20260506184503 7 29 17.7 20.9 0.00 0.00 0.00 37 1013.5
20260506183604 8 34 17.7 20.9 0.00 0.00 0.00 34 1013.5
20260506182703 8 29 17.7 22.5 0.00 0.00 0.00 32 1013.5
20260506181803 8 29 17.7 19.3 0.00 0.00 0.00 30 1013.4
20260506181116 8 42 17.7 19.3 0.00 0.00 0.00 30 1013.4
20260506180004 8 35 19.3 25.7 0.00 0.00 0.00 30 1013.3
20260506175403 8 33 19.3 25.7 0.00 0.00 0.00 29 1013.3
20260506174717 8 27 20.9 25.7 0.00 0.00 0.00 27 1013.3
20260506173603 8 27 17.7 24.1 0.00 0.00 0.00 26 1013.2
20260506172703 9 27 19.3 24.1 0.00 0.00 0.00 24 1013.3
20260506171803 9 32 17.7 22.5 0.00 0.00 0.00 24 1013.3
20260506170903 9 30 19.3 22.5 0.00 0.00 0.00 26 1013.4
20260506170004 9 23 17.7 24.1 0.00 0.00 0.00 28 1013.4
20260506165403 9 11 19.3 24.1 0.00 0.00 0.00 28 1013.4
20260506164504 10 17 16.1 22.5 0.00 0.00 0.00 29 1013.4
20260506163603 10 7 16.1 20.9 0.00 0.00 0.00 28 1013.5
20260506162703 10 360 19.3 27.4 0.00 0.00 0.00 27 1013.4
20260506161803 10 1 19.3 24.1 0.00 0.00 0.00 26 1013.3
20260506160903 10 360 20.9 27.4 0.00 0.00 0.00 26 1013.2
20260506160217 10 2 24.1 29.0 0.00 0.00 0.00 25 1013.3
20260506155403 10 6 19.3 24.1 0.00 0.00 0.00 27 1013.2
20260506154504 10 3 22.5 27.4 0.00 0.00 0.00 26 1013.3
20260506153603 10 3 20.9 25.7 0.00 0.00 0.00 25 1013.5
20260506152917 10 360 25.7 32.2 0.00 0.00 0.00 24 1013.4
20260506151803 11 356 20.9 24.1 0.00 0.00 0.00 22 1013.5
20260506150903 11 360 20.9 27.4 0.00 0.00 0.00 19 1013.4
20260506150217 11 3 22.5 27.4 0.00 0.00 0.00 19 1013.6
20260506145619 11 3 24.1 27.4 0.00 0.00 0.00 19 1013.6
20260506144504 11 6 19.3 25.7 0.00 0.00 0.00 19 1013.7
20260506143603 11 359 24.1 27.4 0.00 0.00 0.00 20 1013.7
20260506142919 11 348 22.5 29.0 0.00 0.00 0.00 21 1013.7
20260506141803 11 353 24.1 27.4 0.00 0.00 0.00 22 1013.9
20260506140904 11 327 22.5 27.4 0.00 0.00 0.00 22 1013.9
20260506140004 11 347 24.1 27.4 0.00 0.00 0.00 23 1014.2
20260506135403 11 344 22.5 27.4 0.00 0.00 0.00 22 1014.0
20260506134717 11 338 22.5 27.4 0.00 0.00 0.00 22 1014.1
20260506133603 11 341 22.5 25.7 0.00 0.00 0.00 24 1014.3
20260506132703 11 324 22.5 27.4 0.00 0.00 0.00 26 1014.5
20260506131804 11 350 22.5 29.0 0.00 0.00 0.00 26 1014.3
20260506130903 11 350 20.9 27.4 0.00 0.00 0.00 26 1014.2
20260506130004 11 340 17.7 30.6 0.00 0.00 0.00 27 1014.3
20260506125404 11 331 22.5 30.6 0.00 0.00 0.00 26 1014.3
20260506124504 11 348 22.5 27.4 0.00 0.00 0.00 25 1014.3
20260506123603 11 336 20.9 27.4 0.00 0.00 0.00 22 1014.4
20260506122703 12 331 19.3 24.1 0.00 0.00 0.00 21 1014.5
20260506122017 11 331 19.3 24.1 0.00 0.00 0.00 21 1014.5
20260506121119 11 332 19.3 24.1 0.00 0.00 0.00 21 1014.5
20260506120004 11 318 20.9 25.7 0.00 0.00 0.00 19 1014.4
20260506115404 11 333 17.7 24.1 0.00 0.00 0.00 19 1014.5
20260506114503 11 327 17.7 22.5 0.00 0.00 0.00 18 1014.5
20260506113603 11 347 20.9 25.7 0.00 0.00 0.00 17 1014.2
20260506112703 12 334 14.5 24.1 0.00 0.00 0.00 16 1014.2
20260506111803 11 342 16.1 24.1 0.00 0.00 0.00 17 1014.3
20260506110904 11 331 16.1 24.1 0.00 0.00 0.00 16 1014.4
20260506110004 12 333 14.5 24.1 0.00 0.00 0.00 15 1014.4
20260506105403 11 352 14.5 24.1 0.00 0.00 0.00 16 1014.3
20260506104719 11 347 12.9 22.5 0.00 0.00 0.00 17 1014.4